Location: Colonia Mina de C?rbuni
(46.1667°N, 22.7167°E)
Time: 15:51:32
(UTC+00:00)

Courier 1B - Pass Details

Date: 29 April 2024
Orbit: 962 x 1208 km, 28.3° (Epoch: 23 May)

Event Time Altitude Azimuth Distance (km) Brightness Sun altitude
Rises 00:17:49 0° 248° (WSW) 4,089 - -24.3°
Reaches altitude 10° 00:21:55 10° 229° (SW) 3,098 - -23.9°
Maximum altitude 00:26:20 16° 193° (SSW) 2,603 - -23.5°
Drops below altitude 10° 00:30:39 10° 158° (SSE) 3,008 - -23.1°
Exits shadow 00:32:12 - 149° (SSE) 3,327 10.0 -23.0°
Sets 00:34:33 0° 138° (SE) 3,916 10.5 -22.8°
